TimePST,TemperatureF,Dew PointF,Humidity,Sea Level PressureIn,VisibilityMPH,Wind Direction,Wind SpeedMPH,Gust SpeedMPH,PrecipitationIn,Events,Conditions,WindDirDegrees,DateUTC
12:07 AM,39.2,35.6,87,30.25,10.0,Calm,Calm,-,N/A,,Overcast,0,2012-11-14 08:07:00
12:53 AM,39.0,35.1,86,30.26,10.0,Calm,Calm,-,N/A,,Overcast,0,2012-11-14 08:53:00
1:53 AM,39.0,35.1,86,30.25,10.0,Calm,Calm,-,N/A,,Overcast,0,2012-11-14 09:53:00
2:53 AM,39.0,36.0,89,30.25,10.0,Calm,Calm,-,N/A,,Overcast,0,2012-11-14 10:53:00
3:40 AM,39.2,35.6,87,30.24,10.0,Calm,Calm,-,N/A,,Overcast,0,2012-11-14 11:40:00
3:53 AM,39.0,36.0,89,30.25,10.0,Calm,Calm,-,N/A,,Overcast,0,2012-11-14 11:53:00
4:53 AM,39.9,36.0,86,30.24,10.0,Calm,Calm,-,N/A,,Overcast,0,2012-11-14 12:53:00
5:38 AM,39.2,37.4,93,30.24,10.0,Calm,Calm,-,N/A,,Overcast,0,2012-11-14 13:38:00
5:53 AM,39.9,37.0,89,30.25,10.0,Calm,Calm,-,N/A,,Overcast,0,2012-11-14 13:53:00
6:09 AM,39.2,37.4,93,30.25,10.0,Calm,Calm,-,N/A,,Overcast,0,2012-11-14 14:09:00
6:21 AM,39.2,37.4,93,30.26,10.0,Calm,Calm,-,N/A,,Overcast,0,2012-11-14 14:21:00
6:53 AM,41.0,37.0,86,30.27,10.0,Calm,Calm,-,N/A,,Overcast,0,2012-11-14 14:53:00
7:36 AM,41.0,37.4,87,30.27,5.0,SSE,4.6,-,N/A,,Overcast,150,2012-11-14 15:36:00
7:53 AM,42.1,37.9,85,30.29,5.0,SSE,3.5,-,N/A,,Overcast,160,2012-11-14 15:53:00
8:53 AM,43.0,39.9,89,30.30,5.0,South,3.5,-,N/A,,Overcast,170,2012-11-14 16:53:00
9:53 AM,44.1,39.9,85,30.31,3.0,Calm,Calm,-,N/A,,Overcast,0,2012-11-14 17:53:00
10:53 AM,45.0,41.0,86,30.31,3.0,Calm,Calm,-,N/A,,Overcast,0,2012-11-14 18:53:00
11:00 AM,44.6,39.2,81,30.30,8.0,WNW,3.5,-,N/A,,Overcast,300,2012-11-14 19:00:00
11:53 AM,46.0,39.9,79,30.31,10.0,WNW,5.8,-,N/A,,Overcast,300,2012-11-14 19:53:00
12:53 PM,46.0,39.9,79,30.32,6.0,NNW,4.6,-,N/A,,Haze,330,2012-11-14 20:53:00
1:48 PM,46.4,39.2,76,30.31,10.0,North,5.8,-,N/A,,Overcast,10,2012-11-14 21:48:00
1:53 PM,46.0,39.9,79,30.32,10.0,North,6.9,-,N/A,,Overcast,10,2012-11-14 21:53:00
2:53 PM,45.0,39.9,82,30.32,10.0,North,6.9,-,N/A,,Overcast,350,2012-11-14 22:53:00
3:11 PM,44.6,39.2,81,30.32,10.0,NNW,4.6,-,N/A,,Overcast,340,2012-11-14 23:11:00
3:53 PM,45.0,39.0,80,30.33,10.0,North,3.5,-,N/A,,Overcast,10,2012-11-14 23:53:00
4:53 PM,44.1,39.0,82,30.34,10.0,North,5.8,-,N/A,,Overcast,10,2012-11-15 00:53:00
5:53 PM,43.0,37.9,82,30.35,10.0,North,9.2,-,N/A,,Overcast,360,2012-11-15 01:53:00
6:53 PM,41.0,37.0,86,30.37,10.0,North,11.5,-,N/A,,Overcast,360,2012-11-15 02:53:00
7:53 PM,41.0,36.0,82,30.38,10.0,NNE,10.4,-,N/A,,Overcast,20,2012-11-15 03:53:00
8:53 PM,39.9,36.0,86,30.38,10.0,NNE,10.4,-,N/A,,Overcast,20,2012-11-15 04:53:00
9:53 PM,39.9,35.1,83,30.39,10.0,NNE,8.1,-,N/A,,Overcast,30,2012-11-15 05:53:00
10:53 PM,39.0,35.1,86,30.39,10.0,NNE,8.1,-,N/A,,Overcast,30,2012-11-15 06:53:00
11:19 PM,39.2,35.6,87,30.38,10.0,North,6.9,-,N/A,,Overcast,10,2012-11-15 07:19:00
11:53 PM,37.9,35.1,89,30.39,10.0,North,10.4,-,N/A,,Overcast,360,2012-11-15 07:53:00